WA2GTM Weather Reports


Display with metric or nautical units.
time (UTC)temp
F
wind
direction
speed
MPH
gust
MPH
rain 1hr
in
rain 24hr
in
rain mn
in
humidity
%
barometer
mb
20260906173558 85 105 6.0 11.0 0.00 0.00 0.00 74 1017.4
20260906173105 86 137 3.0 10.0 0.00 0.00 0.00 74 1017.4
20260906172556 86 123 2.0 8.0 0.00 0.00 0.00 75 1017.4
20260906172054 85 172 3.0 9.0 0.00 0.00 0.00 76 1017.4
20260906171609 85 160 4.0 9.0 0.00 0.00 0.00 76 1017.5
20260906171055 85 171 3.0 11.0 0.00 0.00 0.00 76 1017.4
20260906170556 84 173 4.0 11.0 0.00 0.00 0.00 76 1017.5
20260906165557 84 135 3.0 10.0 0.00 0.00 0.00 77 1017.5
20260906165055 84 159 3.0 10.0 0.00 0.00 0.00 77 1017.5
20260906164605 83 0 3.0 10.0 0.00 0.00 0.00 78 1017.6
20260906164055 83 156 4.0 10.0 0.00 0.00 0.00 78 1017.5
20260906163556 83 174 4.0 10.0 0.00 0.00 0.00 78 1017.5
20260906163105 83 145 3.0 14.0 0.00 0.00 0.00 79 1017.5
20260906162557 82 147 3.0 14.0 0.00 0.00 0.00 80 1017.4
20260906162055 82 123 2.0 10.0 0.00 0.00 0.00 80 1017.5
20260906161606 81 123 4.0 12.0 0.00 0.00 0.00 80 1017.2
20260906161059 81 161 4.0 12.0 0.00 0.00 0.00 79 1017.1
20260906160556 82 151 5.0 12.0 0.00 0.00 0.00 79 1017.1
20260906155555 80 153 4.0 11.0 0.00 0.00 0.00 82 1017.2
20260906155057 80 167 3.0 11.0 0.00 0.00 0.00 83 1017.3
20260906154607 79 114 4.0 9.0 0.00 0.00 0.00 82 1017.4
20260906154056 79 113 5.0 9.0 0.00 0.00 0.00 83 1017.4
20260906153559 79 169 3.0 11.0 0.00 0.00 0.00 84 1017.7
20260906153102 79 159 4.0 11.0 0.00 0.00 0.00 84 1017.8
20260906152559 78 116 3.0 10.0 0.00 0.00 0.00 85 1017.8
20260906152055 78 178 5.0 10.0 0.00 0.00 0.00 85 1017.8
20260906151601 77 165 3.0 10.0 0.00 0.00 0.00 86 1017.5
20260906151055 77 171 5.0 10.0 0.00 0.00 0.00 87 1017.5
20260906150555 76 150 4.0 12.0 0.00 0.00 0.00 88 1017.4
20260906150113 76 138 3.0 12.0 0.00 0.00 0.00 88 1017.4
20260906145555 75 139 4.0 10.0 0.00 0.00 0.00 89 1017.6
20260906145056 75 155 3.0 11.0 0.00 0.00 0.00 89 1017.5
20260906144622 75 167 5.0 11.0 0.00 0.00 0.00 89 1017.5
20260906144056 75 144 4.0 10.0 0.00 0.00 0.00 89 1017.5
20260906143556 75 125 3.0 10.0 0.00 0.00 0.00 90 1017.5
20260906143103 74 155 3.0 10.0 0.00 0.00 0.00 90 1017.6
20260906142555 74 165 4.0 8.0 0.00 0.00 0.00 90 1017.7
20260906142058 74 170 3.0 7.0 0.00 0.00 0.00 90 1017.8
20260906141624 74 159 3.0 7.0 0.00 0.00 0.00 90 1017.8
20260906141057 74 162 3.0 10.0 0.00 0.00 0.00 91 1017.6
20260906140559 74 157 5.0 10.0 0.00 0.00 0.00 91 1017.6
20260906140110 74 172 4.0 8.0 0.00 0.00 0.00 90 1017.7
20260906135558 74 165 2.0 8.0 0.00 0.00 0.00 91 1017.6
20260906135056 74 139 2.0 8.0 0.00 0.00 0.00 91 1017.7
20260906134607 73 147 2.0 6.0 0.00 0.00 0.00 91 1017.7
20260906134056 73 160 2.0 7.0 0.00 0.00 0.00 91 1017.8
20260906133556 73 167 2.0 7.0 0.00 0.00 0.00 91 1017.9
20260906133101 73 173 3.0 7.0 0.00 0.00 0.00 91 1017.8
20260906132557 73 168 3.0 7.0 0.00 0.00 0.00 91 1017.6
20260906132055 73 138 2.0 7.0 0.00 0.00 0.00 91 1017.6
20260906131607 73 167 2.0 6.0 0.00 0.00 0.00 91 1017.5
20260906131056 73 138 2.0 6.0 0.00 0.00 0.00 92 1017.4
20260906130559 73 136 1.0 6.0 0.00 0.00 0.00 92 1017.5
20260906125556 72 130 1.0 7.0 0.00 0.00 0.00 92 1017.2
20260906125056 72 141 2.0 7.0 0.00 0.00 0.00 92 1017.3
20260906124607 72 124 1.0 6.0 0.00 0.00 0.00 92 1017.3
20260906124059 72 0 1.0 6.0 0.00 0.00 0.00 92 1017.4
20260906123556 72 0 1.0 5.0 0.00 0.00 0.00 92 1017.3
20260906123106 72 130 0.0 5.0 0.00 0.00 0.00 92 1017.4
20260906122555 72 130 1.0 5.0 0.00 0.00 0.00 92 1017.3
20260906122055 72 140 1.0 4.0 0.00 0.00 0.00 92 1017.1
20260906121604 72 146 1.0 5.0 0.00 0.00 0.00 92 1017.1
20260906121055 72 153 1.0 6.0 0.00 0.00 0.00 92 1016.9
20260906120555 72 0 1.0 7.0 0.00 0.00 0.00 92 1017.0
20260906120111 72 147 2.0 7.0 0.00 0.00 0.00 92 1016.8
20260906115555 72 142 0.0 7.0 0.00 0.00 0.00 92 1016.7
20260906115054 72 0 1.0 7.0 0.00 0.00 0.00 92 1016.7
20260906114605 72 0 2.0 6.0 0.00 0.00 0.00 91 1016.7
20260906114056 72 115 1.0 7.0 0.00 0.00 0.00 91 1016.7
20260906113555 72 119 1.0 7.0 0.00 0.00 0.00 91 1016.6
20260906113105 72 125 1.0 4.0 0.00 0.00 0.00 91 1016.5
20260906112556 72 123 0.0 3.0 0.00 0.00 0.00 91 1016.5
20260906112055 72 0 0.0 7.0 0.00 0.00 0.00 91 1016.5
20260906111605 72 123 2.0 7.0 0.00 0.00 0.00 91 1016.4
20260906111056 72 0 2.0 7.0 0.00 0.00 0.00 91 1016.3
20260906110555 72 127 2.0 9.0 0.00 0.00 0.00 91 1016.3
20260906110110 72 134 3.0 9.0 0.00 0.00 0.00 91 1016.3
20260906105558 72 113 4.0 9.0 0.00 0.00 0.00 91 1016.3
20260906105057 73 117 3.0 9.0 0.00 0.00 0.00 91 1016.3
20260906104621 73 95 3.0 9.0 0.00 0.00 0.00 91 1016.4
20260906104137 73 112 3.0 9.0 0.00 0.00 0.00 91 1016.4
20260906103555 73 103 3.0 9.0 0.00 0.00 0.00 91 1016.5
20260906103101 73 106 3.0 9.0 0.00 0.00 0.00 91 1016.5
20260906102555 73 106 3.0 7.0 0.00 0.00 0.00 91 1016.6
20260906102055 73 188 3.0 7.0 0.00 0.00 0.00 91 1016.7
20260906101600 73 0 2.0 9.0 0.00 0.00 0.00 91 1016.6
20260906101055 73 0 2.0 9.0 0.00 0.00 0.00 91 1016.5
20260906100556 73 116 1.0 6.0 0.00 0.00 0.00 91 1016.6
20260906100100 73 111 2.0 6.0 0.00 0.00 0.00 91 1016.7
20260906095555 73 128 1.0 7.0 0.00 0.00 0.00 91 1016.6
20260906095057 73 115 2.0 8.0 0.00 0.00 0.00 91 1016.4
20260906094643 73 119 2.0 8.0 0.00 0.00 0.00 91 1016.4
20260906094056 73 121 3.0 8.0 0.00 0.00 0.00 91 1016.2
20260906093556 73 117 2.0 7.0 0.00 0.00 0.00 91 1016.4
20260906093109 73 103 3.0 8.0 0.00 0.00 0.00 91 1016.3
20260906092558 73 129 3.0 9.0 0.00 0.00 0.00 91 1016.2
20260906092056 73 114 3.0 9.0 0.00 0.00 0.00 91 1016.1
20260906091611 73 101 3.0 10.0 0.00 0.00 0.00 91 1016.1
20260906091056 73 108 3.0 10.0 0.00 0.00 0.00 91 1016.1
20260906090555 73 117 3.0 10.0 0.00 0.00 0.00 91 1016.2
20260906085556 74 116 2.0 8.0 0.00 0.00 0.00 91 1016.1
20260906085055 74 122 1.0 9.0 0.00 0.00 0.00 91 1016.2
20260906084605 74 86 4.0 9.0 0.00 0.00 0.00 92 1016.1
20260906084058 74 152 3.0 11.0 0.00 0.00 0.00 92 1016.1
20260906083556 74 106 4.0 11.0 0.00 0.00 0.00 92 1016.0
20260906083103 74 122 3.0 9.0 0.00 0.00 0.00 92 1015.9
20260906082555 74 0 3.0 8.0 0.00 0.00 0.00 92 1015.9
20260906082056 74 115 3.0 8.0 0.00 0.00 0.00 92 1015.8
20260906081602 74 97 3.0 8.0 0.00 0.00 0.00 92 1015.8
20260906081055 74 122 3.0 9.0 0.00 0.00 0.00 92 1015.9
20260906080556 74 125 4.0 9.0 0.00 0.00 0.00 92 1016.0
20260906080104 74 103 3.0 8.0 0.00 0.00 0.00 92 1015.9
20260906075555 75 111 3.0 8.0 0.00 0.00 0.00 92 1016.0
20260906075057 75 103 2.0 8.0 0.00 0.00 0.00 93 1015.9
20260906074601 75 115 4.0 9.0 0.00 0.00 0.00 93 1015.9
20260906074055 75 138 4.0 9.0 0.00 0.00 0.00 93 1015.9
20260906073554 75 94 2.0 8.0 0.00 0.00 0.00 92 1015.8
20260906073105 75 116 3.0 10.0 0.00 0.00 0.00 93 1015.8
20260906072557 75 119 3.0 10.0 0.00 0.00 0.00 93 1015.9
20260906072056 75 106 2.0 8.0 0.00 0.00 0.00 93 1016.0
20260906071606 75 103 4.0 9.0 0.00 0.00 0.00 93 1015.9
20260906071059 75 113 3.0 9.0 0.00 0.00 0.00 93 1016.0
20260906070558 75 117 2.0 8.0 0.00 0.00 0.00 93 1016.1
20260906070059 75 124 2.0 8.0 0.00 0.00 0.00 93 1016.0
20260906065555 76 113 3.0 8.0 0.00 0.00 0.00 92 1016.2
20260906065056 76 109 3.0 9.0 0.00 0.00 0.00 92 1016.1
20260906064601 76 98 3.0 9.0 0.00 0.00 0.00 92 1016.1
20260906064058 76 0 4.0 9.0 0.00 0.00 0.00 92 1016.1
20260906063600 76 96 2.0 9.0 0.00 0.00 0.00 92 1016.1
20260906063103 76 112 2.0 9.0 0.00 0.00 0.00 92 1016.1
20260906062556 76 124 3.0 9.0 0.00 0.00 0.00 92 1016.0
20260906062102 76 124 4.0 9.0 0.00 0.00 0.00 92 1016.1
20260906061604 76 82 3.0 11.0 0.00 0.00 0.00 92 1016.2
20260906061056 76 105 4.0 11.0 0.00 0.00 0.00 92 1016.1
20260906060559 76 115 4.0 11.0 0.00 0.00 0.00 92 1016.1
20260906060100 76 126 4.0 11.0 0.00 0.00 0.00 91 1016.2
20260906055558 77 105 4.0 9.0 0.00 0.00 0.00 91 1016.1
20260906055055 77 96 3.0 9.0 0.00 0.00 0.00 91 1016.1
20260906054604 77 109 3.0 9.0 0.00 0.00 0.00 91 1016.0
20260906054058 77 109 2.0 11.0 0.00 0.00 0.00 91 1015.9
20260906053556 77 96 4.0 11.0 0.00 0.00 0.00 91 1016.0
20260906053104 77 103 4.0 11.0 0.00 0.00 0.00 91 1015.9
20260906052559 77 80 5.0 11.0 0.00 0.00 0.00 90 1015.9
20260906052056 77 140 4.0 10.0 0.00 0.00 0.00 90 1015.9
20260906051605 78 124 4.0 10.0 0.00 0.00 0.00 90 1015.9
20260906051100 78 99 4.0 10.0 0.00 0.00 0.00 89 1015.8
20260906050555 78 95 3.0 10.0 0.00 0.00 0.00 89 1015.9
20260906050135 78 82 3.0 11.0 0.00 0.00 0.00 89 1016.0
20260906045555 78 96 4.0 11.0 0.00 0.00 0.00 89 1016.1
20260906045056 78 137 3.0 9.0 0.00 0.00 0.00 89 1016.0
20260906044559 79 86 4.0 9.0 0.00 0.00 0.00 88 1016.0
20260906044058 79 88 3.0 8.0 0.00 0.00 0.00 88 1016.0
20260906043555 79 97 3.0 8.0 0.00 0.00 0.00 88 1015.9
20260906043106 79 107 3.0 8.0 0.00 0.00 0.00 88 1015.8
20260906042555 79 115 3.0 8.0 0.00 0.00 0.00 88 1015.9
20260906042057 79 117 3.0 9.0 0.00 0.00 0.00 88 1016.1
20260906041601 79 106 3.0 9.0 0.00 0.00 0.00 88 1016.0
20260906041056 79 109 4.0 9.0 0.00 0.00 0.00 88 1015.9
20260906040556 79 107 4.0 9.0 0.00 0.00 0.00 88 1015.9
20260906040138 79 106 2.0 9.0 0.00 0.00 0.00 88 1015.8
20260906035557 79 105 4.0 9.0 0.00 0.00 0.00 87 1015.7
20260906035059 79 104 2.0 8.0 0.00 0.00 0.00 87 1015.5
20260906034604 79 128 3.0 8.0 0.00 0.00 0.00 87 1015.5
20260906034056 79 107 1.0 6.0 0.00 0.00 0.00 86 1015.4
20260906033558 80 123 2.0 6.0 0.00 0.00 0.00 86 1015.4
20260906033109 80 123 1.0 6.0 0.00 0.00 0.00 85 1015.6
20260906032555 80 119 2.0 6.0 0.00 0.00 0.00 85 1015.7
20260906032056 80 111 2.0 6.0 0.00 0.00 0.00 85 1015.6
20260906031605 81 112 1.0 6.0 0.00 0.00 0.00 84 1015.7
20260906031057 81 109 1.0 7.0 0.00 0.00 0.00 84 1015.8
20260906030558 81 115 1.0 7.0 0.00 0.00 0.00 84 1015.6
20260906030104 81 108 2.0 7.0 0.00 0.00 0.00 84 1015.5
20260906025556 81 112 2.0 7.0 0.00 0.00 0.00 83 1015.6
20260906025056 81 105 3.0 8.0 0.00 0.00 0.00 83 1015.5
20260906024606 81 91 3.0 8.0 0.00 0.00 0.00 83 1015.5
20260906024057 81 84 2.0 7.0 0.00 0.00 0.00 83 1015.4
20260906023556 81 83 3.0 7.0 0.00 0.00 0.00 83 1015.3
20260906023103 81 94 3.0 7.0 0.00 0.00 0.00 83 1015.3
20260906022558 82 93 2.0 6.0 0.00 0.00 0.00 83 1015.2
20260906022058 82 94 2.0 5.0 0.00 0.00 0.00 83 1015.3
20260906021607 82 96 2.0 5.0 0.00 0.00 0.00 82 1015.2
20260906021058 82 127 1.0 7.0 0.00 0.00 0.00 82 1015.1
20260906020557 82 103 2.0 7.0 0.00 0.00 0.00 82 1015.1
20260906020106 82 94 2.0 7.0 0.00 0.00 0.00 82 1014.9
20260906015556 82 94 1.0 6.0 0.00 0.00 0.00 82 1014.7
20260906015056 82 106 2.0 7.0 0.00 0.00 0.00 82 1014.7
20260906014606 82 100 2.0 7.0 0.00 0.00 0.00 81 1014.5
20260906014055 82 125 2.0 7.0 0.00 0.00 0.00 81 1014.4
20260906013555 83 106 2.0 7.0 0.00 0.00 0.00 81 1014.4
20260906013101 83 107 1.0 7.0 0.00 0.00 0.00 81 1014.5
20260906012600 83 109 1.0 6.0 0.00 0.00 0.00 81 1014.2
20260906012055 83 107 2.0 6.0 0.00 0.00 0.00 80 1014.2
20260906011603 83 0 2.0 6.0 0.00 0.00 0.00 80 1014.3
20260906011101 84 107 2.0 6.0 0.00 0.00 0.00 79 1014.4
20260906010557 84 100 1.0 8.0 0.00 0.00 0.00 79 1014.5
20260906010106 84 102 3.0 11.0 0.00 0.00 0.00 79 1014.5
20260906005555 84 132 3.0 11.0 0.00 0.00 0.00 79 1014.5
20260906005056 84 92 3.0 7.0 0.00 0.00 0.00 79 1014.3
20260906004622 85 84 3.0 7.0 0.00 0.00 0.00 79 1014.5
20260906004057 85 107 3.0 9.0 0.00 0.00 0.00 78 1014.6
20260906003602 85 82 2.0 9.0 0.00 0.00 0.00 78 1014.6
20260906003117 85 99 3.0 9.0 0.00 0.00 0.00 78 1014.6
20260906002558 85 94 3.0 8.0 0.00 0.00 0.00 78 1014.6
20260906002057 86 71 3.0 9.0 0.00 0.00 0.00 77 1014.6
20260906001621 86 98 3.0 9.0 0.00 0.00 0.00 77 1014.6
20260906001057 86 130 3.0 9.0 0.00 0.00 0.00 76 1014.6
20260906000556 86 97 3.0 8.0 0.00 0.00 0.00 76 1014.6
20260906000107 86 92 3.0 11.0 0.00 0.00 0.00 76 1014.6
20260905235555 87 71 3.0 12.0 0.00 0.00 0.00 75 1014.5
20260905235059 87 96 5.0 12.0 0.00 0.00 0.00 75 1014.6
20260905234606 87 122 5.0 12.0 0.00 0.00 0.00 74 1014.7
20260905234056 87 84 4.0 12.0 0.00 0.00 0.00 74 1014.7
20260905233559 88 98 3.0 12.0 0.00 0.00 0.00 74 1014.6
20260905233113 88 92 4.0 12.0 0.00 0.00 0.00 73 1014.6
20260905232555 88 76 5.0 11.0 0.00 0.00 0.00 73 1014.6
20260905232057 88 124 5.0 11.0 0.00 0.00 0.00 73 1014.6
20260905231602 88 92 5.0 11.0 0.00 0.00 0.00 73 1014.7
20260905231059 88 106 5.0 12.0 0.00 0.00 0.00 73 1014.7
20260905230555 88 130 5.0 12.0 0.00 0.00 0.00 73 1014.6
20260905230100 88 117 7.0 12.0 0.00 0.00 0.00 72 1014.5
20260905225554 88 71 6.0 11.0 0.00 0.00 0.00 72 1014.4
20260905225057 88 114 5.0 13.0 0.00 0.00 0.00 72 1014.3
20260905224610 88 82 5.0 13.0 0.00 0.00 0.00 73 1014.4
20260905224055 89 89 5.0 13.0 0.00 0.00 0.00 72 1014.4
20260905223555 88 135 7.0 14.0 0.00 0.00 0.00 71 1014.4
20260905223102 89 115 8.0 14.0 0.00 0.00 0.00 70 1014.5
20260905222556 89 109 4.0 12.0 0.00 0.00 0.00 71 1014.6
20260905222058 89 74 5.0 13.0 0.00 0.00 0.00 71 1014.6
20260905221603 89 92 6.0 13.0 0.00 0.00 0.00 71 1014.5
20260905221056 89 116 7.0 13.0 0.00 0.00 0.00 71 1014.6
20260905220556 89 99 5.0 13.0 0.00 0.00 0.00 71 1014.5
20260905220106 89 110 6.0 14.0 0.00 0.00 0.00 72 1014.5
20260905215600 89 83 7.0 14.0 0.00 0.00 0.00 71 1014.5
20260905215055 89 97 6.0 13.0 0.00 0.00 0.00 72 1014.5
20260905214603 89 111 7.0 13.0 0.00 0.00 0.00 71 1014.5
20260905214056 90 100 5.0 12.0 0.00 0.00 0.00 71 1014.5
20260905213556 89 108 4.0 12.0 0.00 0.00 0.00 72 1014.7
20260905213108 89 112 5.0 13.0 0.00 0.00 0.00 71 1014.7
20260905212556 89 111 6.0 13.0 0.00 0.00 0.00 71 1014.5
20260905212056 89 80 6.0 13.0 0.00 0.00 0.00 71 1014.5
20260905211604 89 84 4.0 18.0 0.00 0.00 0.00 72 1014.6
20260905211058 89 74 7.0 18.0 0.00 0.00 0.00 72 1014.8
20260905210558 88 98 4.0 11.0 0.00 0.00 0.00 73 1014.8
20260905210110 89 99 6.0 11.0 0.00 0.00 0.00 72 1014.8
20260905205555 89 116 4.0 11.0 0.00 0.00 0.00 73 1014.9
20260905205055 89 59 5.0 12.0 0.00 0.00 0.00 72 1014.9
20260905204605 89 134 5.0 12.0 0.00 0.00 0.00 72 1015.0
20260905204056 89 79 4.0 10.0 0.00 0.00 0.00 71 1015.1
20260905203555 89 134 3.0 10.0 0.00 0.00 0.00 73 1015.1
20260905203103 88 117 2.0 11.0 0.00 0.00 0.00 74 1015.1
20260905202557 88 91 4.0 11.0 0.00 0.00 0.00 73 1015.1
20260905202056 89 113 4.0 11.0 0.00 0.00 0.00 72 1015.0
20260905201610 88 146 3.0 10.0 0.00 0.00 0.00 74 1015.0
20260905201054 88 130 4.0 10.0 0.00 0.00 0.00 74 1014.9
20260905200557 88 111 2.0 8.0 0.00 0.00 0.00 75 1015.0
20260905200140 88 119 4.0 11.0 0.00 0.00 0.00 75 1015.0
20260905195558 88 132 4.0 12.0 0.00 0.00 0.00 74 1014.8
20260905195055 87 96 3.0 12.0 0.00 0.00 0.00 74 1014.9
20260905194614 87 85 6.0 11.0 0.00 0.00 0.00 74 1014.9
20260905194055 87 119 4.0 10.0 0.00 0.00 0.00 75 1015.0
20260905193556 87 125 4.0 9.0 0.00 0.00 0.00 75 1015.1
20260905193101 87 117 3.0 11.0 0.00 0.00 0.00 77 1015.2
20260905192556 86 113 5.0 12.0 0.00 0.00 0.00 76 1015.3
20260905192056 86 105 6.0 14.0 0.00 0.00 0.00 76 1015.5
20260905191606 86 57 6.0 14.0 0.00 0.00 0.00 76 1015.5
20260905191057 86 51 6.0 14.0 0.00 0.00 0.00 75 1015.4
20260905190557 86 96 7.0 14.0 0.00 0.00 0.00 77 1015.6
20260905190104 86 112 5.0 13.0 0.00 0.00 0.00 76 1015.6
20260905185556 85 66 3.0 13.0 0.00 0.00 0.00 77 1015.8
20260905185100 85 76 8.0 15.0 0.00 0.00 0.00 76 1016.0
20260905184611 85 78 5.0 15.0 0.00 0.00 0.00 76 1016.1
20260905184059 85 59 8.0 15.0 0.00 0.00 0.00 77 1016.3
20260905183555 85 48 6.0 14.0 0.00 0.00 0.00 76 1016.4
20260905183107 85 75 8.0 14.0 0.00 0.00 0.00 77 1016.3
20260905182556 85 85 6.0 13.0 0.00 0.00 0.00 77 1016.3
20260905182058 85 41 6.0 13.0 0.00 0.00 0.00 77 1016.1
20260905181607 84 24 6.0 15.0 0.00 0.00 0.00 77 1016.3
20260905181056 84 39 6.0 15.0 0.00 0.00 0.00 76 1016.4
20260905180555 84 21 4.0 11.0 0.00 0.00 0.00 76 1016.5
20260905175555 85 25 3.0 10.0 0.00 0.00 0.00 75 1016.5
20260905175055 86 34 5.0 10.0 0.00 0.00 0.00 74 1016.5
20260905174606 86 34 4.0 10.0 0.00 0.00 0.00 75 1016.5
20260905174057 86 29 5.0 9.0 0.00 0.00 0.00 75 1016.5